Tracking 17145 objects as of 24-May-2015
HD Live streaming from Space Station

COSMOS 2251 DEB

Track COSMOS 2251 DEB now!
10-day predictions
COSMOS 2251 DEB is classified as:


NORAD ID: 34781
Int'l Code: 1993-036AAJ
Perigee: 569.3 km
Apogee: 632.4 km
Inclination: 74.1 °
Period: 96.6 minutes
Semi major axis: 6971 km
RCS: 0.0067 m2 (small)
Launch date: June 16, 1993
Source: Commonwealth of Independent States (former USSR) (CIS)

Note: This is SATELLITE DEBRIS
Your satellite tracking list
Your tracking list is empty





NASA's NSSDC Master Catalog

Two Line Element Set (TLE):
1 34781U 93036AAJ 15143.02163359  .00021794  00000-0  21384-2 0  9990
2 34781 074.0500 003.6486 0045262 103.8497 017.5529 14.91368591327467

Source of the keplerian elements: AFSPC

N2YO: 330